DAL281 KIND-KMEM

Flight info

Callsign DAL281
Flight time 1h 7m
Altitude 36000
Route OOM5 PXV BLUZZ5
Aircraft A320/M-V/N

Departure

Time 2026-05-06 00:49
Airport Indianapolis International Airport (KIND)

Arrival

Time 2026-05-06 01:56
Airport Memphis International Airport (KMEM)
Time Latitude Longitude Altitude Speed Heading
2026-05-05 23:53 39.71877 -86.29668 785 ft 0 kts 173°
2026-05-06 00:34 39.71883 -86.29669 786 ft 4 kts 172°
2026-05-06 00:34 39.71906 -86.29674 785 ft 4 kts 168°
2026-05-06 00:35 39.71924 -86.29681 785 ft 3 kts 163°
2026-05-06 00:35 39.71940 -86.29690 785 ft 2 kts 154°
2026-05-06 00:35 39.71955 -86.29702 785 ft 2 kts 137°
2026-05-06 00:35 39.71965 -86.29718 785 ft 2 kts 112°
2026-05-06 00:36 39.71969 -86.29742 784 ft 3 kts 75°
2026-05-06 00:36 39.71964 -86.29762 784 ft 2 kts 53°
2026-05-06 00:36 39.71958 -86.29773 784 ft 2 kts 44°
2026-05-06 00:36 39.71955 -86.29777 783 ft 0 kts 39°
2026-05-06 00:40 39.71956 -86.29775 783 ft 0 kts 39°
2026-05-06 00:40 39.71980 -86.29751 783 ft 8 kts 35°
2026-05-06 00:40 39.72043 -86.29703 785 ft 11 kts 32°
2026-05-06 00:41 39.72110 -86.29639 785 ft 13 kts 40°
2026-05-06 00:41 39.72180 -86.29602 783 ft 11 kts 338°
2026-05-06 00:41 39.72221 -86.29652 782 ft 0 kts 310°
2026-05-06 00:41 39.72222 -86.29654 782 ft 1 kts 310°
2026-05-06 00:42 39.72238 -86.29675 781 ft 7 kts 314°
2026-05-06 00:42 39.72237 -86.29749 782 ft 11 kts 229°
2026-05-06 00:42 39.72168 -86.29836 782 ft 17 kts 225°
2026-05-06 00:42 39.72067 -86.29964 779 ft 23 kts 223°
2026-05-06 00:43 39.71945 -86.30117 775 ft 27 kts 225°
2026-05-06 00:43 39.71823 -86.30277 771 ft 15 kts 224°
2026-05-06 00:43 39.71744 -86.30377 768 ft 17 kts 224°
2026-05-06 00:43 39.71659 -86.30485 767 ft 17 kts 224°
2026-05-06 00:44 39.71577 -86.30590 767 ft 16 kts 225°
2026-05-06 00:44 39.71494 -86.30697 766 ft 17 kts 225°
2026-05-06 00:44 39.71412 -86.30801 767 ft 16 kts 224°
2026-05-06 00:44 39.71327 -86.30909 763 ft 18 kts 224°
2026-05-06 00:45 39.71231 -86.31031 757 ft 21 kts 225°
2026-05-06 00:45 39.71115 -86.31178 752 ft 26 kts 224°
2026-05-06 00:45 39.70980 -86.31350 752 ft 29 kts 225°
2026-05-06 00:45 39.70876 -86.31482 751 ft 19 kts 226°
2026-05-06 00:46 39.70780 -86.31605 751 ft 20 kts 224°
2026-05-06 00:46 39.70674 -86.31740 748 ft 23 kts 224°
2026-05-06 00:46 39.70566 -86.31878 742 ft 12 kts 224°
2026-05-06 00:46 39.70547 -86.31934 745 ft 6 kts 292°
2026-05-06 00:47 39.70578 -86.31973 745 ft 7 kts 317°
2026-05-06 00:47 39.70582 -86.31979 745 ft 0 kts 317°
2026-05-06 00:47 39.70608 -86.32009 745 ft 13 kts 316°
2026-05-06 00:48 39.70660 -86.32049 745 ft 8 kts 15°
2026-05-06 00:48 39.70703 -86.31997 745 ft 10 kts 44°
2026-05-06 00:48 39.70868 -86.31788 750 ft 69 kts 44°
2026-05-06 00:48 39.71376 -86.31143 758 ft 132 kts 44°
2026-05-06 00:49 39.72108 -86.30199 1106 ft 151 kts 43°
2026-05-06 00:49 39.72837 -86.29241 1869 ft 153 kts 43°
2026-05-06 00:49 39.73606 -86.28136 2303 ft 176 kts 44°
2026-05-06 00:49 39.74472 -86.26865 2691 ft 199 kts 45°
2026-05-06 00:50 39.75414 -86.25483 3410 ft 207 kts 45°
2026-05-06 00:50 39.76398 -86.24054 4124 ft 217 kts 45°
2026-05-06 00:50 39.77469 -86.22531 4549 ft 243 kts 45°
2026-05-06 00:50 39.78689 -86.20847 4803 ft 271 kts 45°
2026-05-06 00:51 39.80019 -86.19027 5030 ft 281 kts 45°
2026-05-06 00:51 39.81381 -86.17172 5917 ft 285 kts 45°
2026-05-06 00:51 39.82604 -86.15103 6762 ft 293 kts 58°
2026-05-06 00:51 39.83861 -86.12981 7604 ft 297 kts 37°
2026-05-06 00:52 39.85604 -86.11828 8938 ft 270 kts
2026-05-06 00:52 39.87391 -86.11769 9958 ft 255 kts 340°
2026-05-06 00:52 39.88981 -86.12630 10681 ft 243 kts 314°
2026-05-06 00:52 39.90102 -86.14182 11482 ft 229 kts 292°
2026-05-06 00:53 39.90658 -86.16062 12319 ft 218 kts 273°
2026-05-06 00:53 39.90658 -86.18002 13185 ft 212 kts 256°
2026-05-06 00:53 39.90148 -86.19786 13988 ft 211 kts 240°
2026-05-06 00:53 39.89181 -86.21219 14677 ft 219 kts 224°
2026-05-06 00:54 39.87886 -86.22324 15331 ft 225 kts 219°
2026-05-06 00:54 39.86502 -86.23456 15647 ft 245 kts 219°
2026-05-06 00:54 39.84996 -86.24688 15903 ft 265 kts 219°
2026-05-06 00:54 39.83368 -86.26016 16160 ft 286 kts 218°
2026-05-06 00:55 39.81623 -86.27432 16416 ft 304 kts 218°
2026-05-06 00:55 39.79808 -86.28909 16875 ft 314 kts 218°
2026-05-06 00:55 39.77942 -86.30419 17586 ft 317 kts 218°
2026-05-06 00:55 39.76045 -86.31945 18259 ft 322 kts 218°
2026-05-06 00:56 39.74123 -86.33493 18834 ft 326 kts 218°
2026-05-06 00:56 39.72188 -86.35057 19436 ft 328 kts 218°
2026-05-06 00:56 39.70237 -86.36637 20048 ft 331 kts 217°
2026-05-06 00:56 39.68292 -86.38208 20652 ft 334 kts 218°
2026-05-06 00:57 39.66300 -86.39828 21032 ft 344 kts 218°
2026-05-06 00:57 39.64220 -86.41529 21168 ft 361 kts 217°
2026-05-06 00:57 39.62058 -86.43294 21534 ft 370 kts 217°
2026-05-06 00:57 39.59861 -86.45075 22043 ft 374 kts 217°
2026-05-06 00:58 39.57666 -86.46840 22579 ft 377 kts 217°
2026-05-06 00:58 39.55420 -86.48643 23120 ft 380 kts 217°
2026-05-06 00:58 39.53163 -86.50458 23622 ft 382 kts 217°
2026-05-06 00:58 39.50892 -86.52281 24049 ft 385 kts 218°
2026-05-06 00:59 39.48608 -86.54114 24468 ft 387 kts 218°
2026-05-06 00:59 39.46309 -86.55958 24879 ft 389 kts 218°
2026-05-06 00:59 39.44028 -86.57792 25280 ft 391 kts 219°
2026-05-06 00:59 39.41707 -86.59657 25674 ft 394 kts 219°
2026-05-06 01:00 39.39364 -86.61532 26049 ft 396 kts 219°
2026-05-06 01:00 39.37011 -86.63416 26426 ft 398 kts 220°
2026-05-06 01:00 39.34649 -86.65308 26795 ft 400 kts 220°
2026-05-06 01:00 39.32270 -86.67213 27159 ft 402 kts 220°
2026-05-06 01:01 39.29914 -86.69101 27507 ft 405 kts 220°
2026-05-06 01:01 39.27512 -86.71024 27858 ft 407 kts 221°
2026-05-06 01:01 39.25089 -86.72961 28200 ft 409 kts 221°
2026-05-06 01:01 39.22661 -86.74899 28526 ft 411 kts 221°
2026-05-06 01:02 39.20222 -86.76843 28848 ft 413 kts 221°
2026-05-06 01:02 39.17764 -86.78802 29152 ft 415 kts 221°
2026-05-06 01:02 39.15328 -86.80741 29444 ft 417 kts 222°
2026-05-06 01:02 39.12846 -86.82714 29733 ft 419 kts 222°
2026-05-06 01:03 39.10350 -86.84697 29994 ft 421 kts 222°
2026-05-06 01:03 39.07848 -86.86680 30216 ft 422 kts 222°
2026-05-06 01:03 39.05347 -86.88658 30535 ft 421 kts 222°
2026-05-06 01:03 39.02851 -86.90628 30865 ft 419 kts 222°
2026-05-06 01:04 39.00401 -86.92562 31193 ft 417 kts 222°
2026-05-06 01:04 38.97928 -86.94517 31525 ft 416 kts 222°
2026-05-06 01:04 38.95465 -86.96466 31848 ft 414 kts 222°
2026-05-06 01:04 38.93012 -86.98410 32181 ft 412 kts 223°
2026-05-06 01:05 38.90571 -87.00342 32501 ft 411 kts 223°
2026-05-06 01:05 38.88130 -87.02268 32820 ft 410 kts 222°
2026-05-06 01:05 38.85733 -87.04157 33150 ft 408 kts 223°
2026-05-06 01:05 38.83284 -87.06088 33493 ft 407 kts 223°
2026-05-06 01:06 38.80899 -87.07965 33817 ft 406 kts 222°
2026-05-06 01:06 38.78494 -87.09853 34109 ft 404 kts 223°
2026-05-06 01:06 38.76098 -87.11735 34399 ft 403 kts 223°
2026-05-06 01:06 38.74511 -87.12981 34589 ft 402 kts 223°
2026-05-06 01:07 38.71347 -87.15458 34959 ft 401 kts 223°
2026-05-06 01:07 38.68965 -87.17324 35227 ft 400 kts 223°
2026-05-06 01:07 38.66600 -87.19178 35496 ft 399 kts 223°
2026-05-06 01:07 38.64229 -87.21039 35677 ft 399 kts 223°
2026-05-06 01:08 38.62654 -87.22276 35796 ft 400 kts 223°
2026-05-06 01:08 38.57899 -87.25999 35868 ft 400 kts 223°
2026-05-06 01:09 38.52370 -87.30306 35868 ft 399 kts 223°
2026-05-06 01:09 38.48413 -87.33376 35871 ft 399 kts 223°
2026-05-06 01:10 38.43688 -87.37051 35867 ft 399 kts 223°
2026-05-06 01:10 38.38935 -87.40745 35865 ft 399 kts 223°
2026-05-06 01:11 38.34180 -87.44432 35852 ft 399 kts 223°
2026-05-06 01:11 38.29454 -87.48090 35850 ft 399 kts 223°
2026-05-06 01:12 38.24692 -87.51756 35844 ft 399 kts 223°
2026-05-06 01:12 38.19932 -87.55428 35837 ft 399 kts 223°
2026-05-06 01:13 38.15175 -87.59094 35746 ft 400 kts 223°
2026-05-06 01:13 38.12826 -87.60904 35597 ft 400 kts 223°
2026-05-06 01:13 38.10441 -87.62739 35445 ft 401 kts 223°
2026-05-06 01:13 38.08047 -87.64578 35297 ft 401 kts 223°
2026-05-06 01:14 38.03262 -87.68254 35002 ft 403 kts 223°
2026-05-06 01:14 38.00859 -87.70097 34856 ft 403 kts 223°
2026-05-06 01:14 37.98453 -87.71935 34712 ft 404 kts 223°
2026-05-06 01:15 37.96037 -87.73781 34581 ft 405 kts 223°
2026-05-06 01:15 37.93653 -87.75604 34443 ft 406 kts 222°
2026-05-06 01:15 37.91120 -87.77299 34296 ft 414 kts 218°
2026-05-06 01:15 37.88527 -87.78901 34068 ft 415 kts 218°
2026-05-06 01:16 37.85922 -87.80503 33873 ft 415 kts 217°
2026-05-06 01:16 37.83317 -87.82097 33858 ft 416 kts 217°
2026-05-06 01:16 37.78121 -87.85264 33862 ft 417 kts 217°
2026-05-06 01:17 37.72886 -87.88455 33860 ft 416 kts 217°
2026-05-06 01:17 37.67668 -87.91648 33853 ft 417 kts 217°
2026-05-06 01:18 37.62435 -87.94841 33865 ft 417 kts 217°
2026-05-06 01:18 37.57228 -87.97987 33862 ft 417 kts 217°
2026-05-06 01:19 37.51994 -88.01169 33854 ft 417 kts 218°
2026-05-06 01:19 37.46761 -88.04344 33858 ft 416 kts 218°
2026-05-06 01:20 37.41562 -88.07495 33846 ft 416 kts 218°
2026-05-06 01:20 37.36342 -88.10656 33849 ft 416 kts 218°
2026-05-06 01:21 37.31120 -88.13812 33849 ft 416 kts 218°
2026-05-06 01:21 37.25902 -88.16959 33850 ft 415 kts 218°
2026-05-06 01:22 37.20721 -88.20080 33846 ft 415 kts 218°
2026-05-06 01:22 37.15515 -88.23205 33840 ft 414 kts 218°
2026-05-06 01:23 37.10298 -88.26333 33829 ft 414 kts 218°
2026-05-06 01:23 37.05125 -88.29424 33825 ft 414 kts 218°
2026-05-06 01:24 36.99922 -88.32536 33822 ft 414 kts 218°
2026-05-06 01:24 36.94728 -88.35649 33821 ft 413 kts 218°
2026-05-06 01:25 36.89534 -88.38754 33819 ft 413 kts 218°
2026-05-06 01:25 36.84375 -88.41829 33817 ft 412 kts 218°
2026-05-06 01:26 36.79193 -88.44917 33823 ft 413 kts 218°
2026-05-06 01:26 36.73997 -88.47996 33822 ft 413 kts 218°
2026-05-06 01:27 36.68795 -88.51086 33820 ft 413 kts 218°
2026-05-06 01:27 36.63623 -88.54148 33819 ft 414 kts 217°
2026-05-06 01:28 36.58406 -88.57222 33819 ft 414 kts 217°
2026-05-06 01:28 36.53190 -88.60304 33821 ft 414 kts 217°
2026-05-06 01:29 36.48003 -88.63364 33819 ft 415 kts 217°
2026-05-06 01:29 36.42766 -88.66443 33815 ft 416 kts 217°
2026-05-06 01:30 36.37510 -88.69527 33612 ft 417 kts 217°
2026-05-06 01:30 36.34880 -88.71068 33341 ft 417 kts 217°
2026-05-06 01:30 36.32253 -88.72608 33082 ft 418 kts 217°
2026-05-06 01:31 36.29615 -88.74153 32816 ft 420 kts 216°
2026-05-06 01:31 36.26969 -88.75708 32518 ft 420 kts 216°
2026-05-06 01:31 36.24360 -88.77243 31709 ft 420 kts 215°
2026-05-06 01:31 36.21706 -88.78804 30764 ft 423 kts 214°
2026-05-06 01:32 36.19035 -88.80371 29973 ft 423 kts 213°
2026-05-06 01:32 36.16373 -88.81918 29218 ft 420 kts 212°
2026-05-06 01:32 36.13730 -88.83444 28487 ft 417 kts 212°
2026-05-06 01:32 36.11109 -88.84957 27793 ft 413 kts 212°
2026-05-06 01:33 36.08556 -88.86433 26928 ft 405 kts 212°
2026-05-06 01:33 36.06020 -88.87903 25848 ft 400 kts 212°
2026-05-06 01:33 36.03517 -88.89359 24815 ft 394 kts 212°
2026-05-06 01:33 36.01043 -88.90803 23821 ft 390 kts 212°
2026-05-06 01:34 35.98602 -88.92232 22772 ft 386 kts 212°
2026-05-06 01:34 35.96219 -88.93620 21773 ft 380 kts 212°
2026-05-06 01:34 35.93830 -88.95002 20935 ft 378 kts 212°
2026-05-06 01:34 35.91460 -88.96376 20497 ft 373 kts 213°
2026-05-06 01:35 35.89114 -88.97735 20023 ft 370 kts 213°
2026-05-06 01:35 35.86795 -88.99079 19555 ft 366 kts 213°
2026-05-06 01:35 35.84491 -89.00411 19079 ft 363 kts 213°
2026-05-06 01:35 35.82210 -89.01727 18614 ft 360 kts 213°
2026-05-06 01:36 35.79976 -89.03014 18166 ft 357 kts 213°
2026-05-06 01:36 35.77729 -89.04309 17649 ft 354 kts 213°
2026-05-06 01:36 35.75508 -89.05591 17137 ft 351 kts 213°
2026-05-06 01:36 35.73371 -89.06966 16631 ft 340 kts 222°
2026-05-06 01:37 35.71622 -89.08793 16400 ft 320 kts 233°
2026-05-06 01:37 35.70122 -89.10789 16031 ft 315 kts 234°
2026-05-06 01:37 35.68658 -89.12716 15465 ft 308 kts 234°
2026-05-06 01:37 35.67190 -89.14623 14656 ft 305 kts 234°
2026-05-06 01:38 35.65735 -89.16502 13882 ft 301 kts 234°
2026-05-06 01:38 35.64293 -89.18357 13051 ft 299 kts 233°
2026-05-06 01:38 35.62860 -89.20198 12776 ft 291 kts 233°
2026-05-06 01:38 35.61486 -89.21961 12632 ft 280 kts 233°
2026-05-06 01:39 35.60156 -89.23679 12319 ft 275 kts 234°
2026-05-06 01:39 35.58907 -89.25432 11935 ft 271 kts 236°
2026-05-06 01:39 35.57722 -89.27196 11532 ft 270 kts 236°
2026-05-06 01:39 35.56540 -89.28992 11121 ft 269 kts 236°
2026-05-06 01:40 35.55365 -89.30777 10805 ft 265 kts 236°
2026-05-06 01:40 35.54230 -89.32500 10682 ft 254 kts 236°
2026-05-06 01:40 35.53140 -89.34153 10559 ft 244 kts 236°
2026-05-06 01:40 35.52084 -89.35736 10389 ft 236 kts 235°
2026-05-06 01:41 35.51044 -89.37283 10101 ft 234 kts 235°
2026-05-06 01:41 35.50061 -89.38830 9994 ft 231 kts 243°
2026-05-06 01:41 35.49317 -89.40585 9787 ft 231 kts 247°
2026-05-06 01:41 35.48639 -89.42377 9541 ft 231 kts 248°
2026-05-06 01:42 35.47974 -89.44171 9280 ft 230 kts 248°
2026-05-06 01:42 35.47314 -89.45963 9024 ft 229 kts 248°
2026-05-06 01:42 35.46665 -89.47743 8770 ft 228 kts 248°
2026-05-06 01:42 35.46023 -89.49522 8518 ft 227 kts 248°
2026-05-06 01:43 35.45398 -89.51269 8270 ft 226 kts 248°
2026-05-06 01:43 35.44767 -89.53043 8015 ft 226 kts 248°
2026-05-06 01:43 35.44142 -89.54814 7771 ft 226 kts 248°
2026-05-06 01:43 35.43523 -89.56578 7522 ft 224 kts 248°
2026-05-06 01:44 35.42907 -89.58326 7285 ft 222 kts 248°
2026-05-06 01:44 35.42294 -89.60067 7040 ft 222 kts 248°
2026-05-06 01:44 35.41692 -89.61792 6798 ft 223 kts 248°
2026-05-06 01:44 35.41096 -89.63542 6567 ft 221 kts 248°
2026-05-06 01:45 35.40505 -89.65293 6325 ft 222 kts 248°
2026-05-06 01:45 35.39920 -89.67033 6083 ft 220 kts 248°
2026-05-06 01:45 35.39329 -89.68762 5833 ft 220 kts 247°
2026-05-06 01:45 35.38752 -89.70497 5580 ft 219 kts 248°
2026-05-06 01:46 35.38183 -89.72235 5327 ft 219 kts 248°
2026-05-06 01:46 35.37618 -89.73962 5091 ft 218 kts 248°
2026-05-06 01:46 35.37061 -89.75654 4847 ft 210 kts 248°
2026-05-06 01:46 35.36545 -89.77277 4603 ft 203 kts 248°
2026-05-06 01:47 35.36051 -89.78876 4358 ft 198 kts 248°
2026-05-06 01:47 35.35574 -89.80436 4109 ft 193 kts 248°
2026-05-06 01:47 35.35112 -89.81951 3916 ft 186 kts 248°
2026-05-06 01:47 35.34667 -89.83424 3767 ft 184 kts 248°
2026-05-06 01:48 35.34377 -89.84404 3672 ft 184 kts 248°
2026-05-06 01:48 35.33956 -89.85883 3514 ft 184 kts 248°
2026-05-06 01:48 35.33408 -89.87866 3341 ft 185 kts 248°
2026-05-06 01:48 35.33001 -89.89366 3216 ft 185 kts 248°
2026-05-06 01:49 35.32727 -89.90382 3139 ft 185 kts 246°
2026-05-06 01:49 35.32035 -89.91627 3061 ft 181 kts 217°
2026-05-06 01:49 35.30712 -89.92554 2994 ft 183 kts 208°
2026-05-06 01:49 35.29613 -89.93334 2989 ft 182 kts 223°
2026-05-06 01:50 35.28712 -89.94413 2990 ft 181 kts 223°
2026-05-06 01:50 35.27747 -89.95385 2992 ft 182 kts 216°
2026-05-06 01:50 35.26684 -89.96238 2991 ft 183 kts 212°
2026-05-06 01:50 35.25573 -89.96927 2988 ft 173 kts 206°
2026-05-06 01:51 35.24467 -89.97441 2982 ft 168 kts 200°
2026-05-06 01:51 35.23295 -89.97612 2990 ft 170 kts 187°
2026-05-06 01:51 35.22115 -89.97633 2995 ft 169 kts 186°
2026-05-06 01:51 35.20950 -89.97623 3018 ft 161 kts 186°
2026-05-06 01:52 35.19889 -89.97603 3012 ft 145 kts 187°
2026-05-06 01:52 35.18924 -89.97585 2927 ft 140 kts 187°
2026-05-06 01:52 35.17947 -89.97568 2785 ft 140 kts 186°
2026-05-06 01:52 35.16970 -89.97548 2629 ft 139 kts 186°
2026-05-06 01:53 35.16003 -89.97528 2460 ft 138 kts 186°
2026-05-06 01:53 35.15046 -89.97508 2296 ft 136 kts 186°
2026-05-06 01:53 35.14106 -89.97488 2105 ft 134 kts 185°
2026-05-06 01:53 35.13222 -89.97469 1942 ft 125 kts 185°
2026-05-06 01:54 35.12357 -89.97451 1780 ft 123 kts 184°
2026-05-06 01:54 35.11506 -89.97434 1626 ft 122 kts 184°
2026-05-06 01:54 35.10641 -89.97416 1460 ft 127 kts 183°
2026-05-06 01:54 35.09752 -89.97398 1295 ft 128 kts 183°
2026-05-06 01:55 35.08843 -89.97379 1115 ft 133 kts 181°
2026-05-06 01:55 35.07895 -89.97359 946 ft 137 kts 182°
2026-05-06 01:55 35.06928 -89.97339 754 ft 141 kts 180°
2026-05-06 01:55 35.05960 -89.97319 562 ft 140 kts 181°
2026-05-06 01:56 35.04985 -89.97302 359 ft 140 kts 180°
2026-05-06 01:56 35.04075 -89.97279 307 ft 110 kts 179°
2026-05-06 01:56 35.03585 -89.97268 317 ft 43 kts 179°
2026-05-06 01:56 35.03382 -89.97272 322 ft 24 kts 187°
2026-05-06 01:57 35.03237 -89.97338 325 ft 19 kts 208°
2026-05-06 01:57 35.03196 -89.97382 327 ft 0 kts 220°
2026-05-06 01:58 35.03172 -89.97409 327 ft 9 kts 228°
2026-05-06 01:58 35.03162 -89.97513 332 ft 18 kts 265°
2026-05-06 01:58 35.03159 -89.97683 330 ft 12 kts 268°
2026-05-06 01:58 35.03159 -89.97692 330 ft 0 kts 269°
2026-05-06 01:59 35.03159 -89.97702 330 ft 0 kts 269°
2026-05-06 02:00 35.03159 -89.97741 326 ft 13 kts 270°
2026-05-06 02:00 35.03213 -89.97820 326 ft 14 kts 354°
2026-05-06 02:00 35.03317 -89.97822 324 ft 16 kts 359°
2026-05-06 02:00 35.03431 -89.97829 322 ft 17 kts 356°
2026-05-06 02:01 35.03552 -89.97830 320 ft 19 kts 359°
2026-05-06 02:01 35.03685 -89.97832 317 ft 14 kts 359°
2026-05-06 02:01 35.03702 -89.97832 317 ft 0 kts
2026-05-06 02:01 35.03704 -89.97832 317 ft 0 kts
2026-05-06 02:02 35.03710 -89.97832 317 ft 2 kts
2026-05-06 02:02 35.03747 -89.97832 317 ft 9 kts 359°
2026-05-06 02:02 35.03830 -89.97834 317 ft 15 kts 359°
2026-05-06 02:02 35.03890 -89.97901 317 ft 14 kts 269°
2026-05-06 02:03 35.03907 -89.98020 314 ft 16 kts 317°
2026-05-06 02:03 35.03979 -89.98004 314 ft 10 kts 57°
2026-05-06 02:03 35.04002 -89.97961 315 ft 4 kts 55°
2026-05-06 02:03 35.04017 -89.97953 313 ft 4 kts
2026-05-06 02:04 35.04024 -89.97953 314 ft 0 kts